NKS1825 KJAX-KFLL

Flight info

Callsign NKS1825
Flight time 1h 3m
Altitude 35000
Route EXBOX2 EXBOX DCT PRMUS CUUDA3
Aircraft A320/M-SDE3FGHIRWY/LB1

Departure

Time 2026-05-03 21:24
Airport Jacksonville International Airport (KJAX)

Arrival

Time 2026-05-03 22:27
Airport Fort Lauderdale Hollywood International Airport (KFLL)
Time Latitude Longitude Altitude Speed Heading
2026-05-03 20:41 30.49235 -81.68611 34 ft 0 kts 115°
2026-05-03 21:03 30.49240 -81.68625 51 ft 4 kts 107°
2026-05-03 21:03 30.49242 -81.68653 35 ft 4 kts 63°
2026-05-03 21:04 30.49228 -81.68667 34 ft 4 kts 344°
2026-05-03 21:04 30.49222 -81.68665 32 ft 3 kts 333°
2026-05-03 21:18 30.49247 -81.68678 35 ft 12 kts 337°
2026-05-03 21:18 30.49335 -81.68722 35 ft 14 kts 303°
2026-05-03 21:18 30.49318 -81.68838 34 ft 16 kts 233°
2026-05-03 21:19 30.49227 -81.68921 35 ft 17 kts 195°
2026-05-03 21:19 30.49132 -81.68894 35 ft 13 kts 150°
2026-05-03 21:19 30.49081 -81.68859 35 ft 7 kts 150°
2026-05-03 21:19 30.49054 -81.68873 35 ft 6 kts 266°
2026-05-03 21:20 30.49086 -81.68968 35 ft 15 kts 294°
2026-05-03 21:20 30.49089 -81.69075 35 ft 14 kts 237°
2026-05-03 21:20 30.49024 -81.69167 35 ft 16 kts 231°
2026-05-03 21:20 30.48966 -81.69251 35 ft 13 kts 232°
2026-05-03 21:21 30.48914 -81.69335 34 ft 12 kts 246°
2026-05-03 21:21 30.48945 -81.69425 35 ft 15 kts 310°
2026-05-03 21:21 30.49023 -81.69531 33 ft 19 kts 310°
2026-05-03 21:21 30.49114 -81.69652 35 ft 21 kts 311°
2026-05-03 21:22 30.49212 -81.69784 35 ft 22 kts 310°
2026-05-03 21:22 30.49304 -81.69908 35 ft 16 kts 307°
2026-05-03 21:22 30.49287 -81.70000 35 ft 14 kts 223°
2026-05-03 21:22 30.49214 -81.70062 34 ft 7 kts 197°
2026-05-03 21:23 30.49178 -81.70031 35 ft 7 kts 130°
2026-05-03 21:23 30.49096 -81.69920 34 ft 49 kts 129°
2026-05-03 21:23 30.48673 -81.69347 31 ft 133 kts 130°
2026-05-03 21:23 30.47952 -81.68368 263 ft 175 kts 127°
2026-05-03 21:24 30.47110 -81.67262 975 ft 188 kts 129°
2026-05-03 21:24 30.46230 -81.66157 1701 ft 184 kts 130°
2026-05-03 21:24 30.45371 -81.65080 2446 ft 181 kts 129°
2026-05-03 21:24 30.44485 -81.63999 2926 ft 195 kts 130°
2026-05-03 21:25 30.43477 -81.62753 3011 ft 230 kts 130°
2026-05-03 21:25 30.42331 -81.61308 3127 ft 251 kts 131°
2026-05-03 21:25 30.41077 -81.59842 3718 ft 258 kts 134°
2026-05-03 21:25 30.39783 -81.58404 4619 ft 264 kts 135°
2026-05-03 21:26 30.38427 -81.56919 5424 ft 272 kts 137°
2026-05-03 21:26 30.37022 -81.55386 6203 ft 282 kts 138°
2026-05-03 21:26 30.35580 -81.53809 7022 ft 287 kts 138°
2026-05-03 21:26 30.34113 -81.52199 7828 ft 293 kts 138°
2026-05-03 21:27 30.32625 -81.50559 8685 ft 297 kts 138°
2026-05-03 21:27 30.31117 -81.48891 9535 ft 301 kts 138°
2026-05-03 21:27 30.29588 -81.47200 10282 ft 309 kts 139°
2026-05-03 21:27 30.27995 -81.45445 10534 ft 332 kts 139°
2026-05-03 21:28 30.26269 -81.43549 10888 ft 348 kts 139°
2026-05-03 21:28 30.24496 -81.41598 11509 ft 354 kts 140°
2026-05-03 21:28 30.22697 -81.39610 12181 ft 360 kts 140°
2026-05-03 21:28 30.20876 -81.37596 12860 ft 364 kts 140°
2026-05-03 21:29 30.19025 -81.35550 13528 ft 369 kts 141°
2026-05-03 21:29 30.17173 -81.33511 14152 ft 374 kts 141°
2026-05-03 21:29 30.15279 -81.31426 14756 ft 377 kts 141°
2026-05-03 21:29 30.13369 -81.29323 15378 ft 380 kts 141°
2026-05-03 21:30 30.11439 -81.27199 15992 ft 383 kts 142°
2026-05-03 21:30 30.09500 -81.25065 16598 ft 386 kts 142°
2026-05-03 21:30 30.07553 -81.22922 17205 ft 389 kts 142°
2026-05-03 21:30 30.05482 -81.20933 17806 ft 385 kts 152°
2026-05-03 21:31 30.03158 -81.19438 18402 ft 380 kts 163°
2026-05-03 21:31 30.00667 -81.18485 18932 ft 375 kts 174°
2026-05-03 21:31 29.98107 -81.18063 19489 ft 371 kts 182°
2026-05-03 21:31 29.95550 -81.17812 20064 ft 374 kts 182°
2026-05-03 21:32 29.92946 -81.17545 20636 ft 376 kts 182°
2026-05-03 21:32 29.90329 -81.17206 21189 ft 384 kts 177°
2026-05-03 21:32 29.87720 -81.16350 21732 ft 397 kts 166°
2026-05-03 21:32 29.85223 -81.14880 22259 ft 410 kts 155°
2026-05-03 21:33 29.82833 -81.13044 22779 ft 414 kts 155°
2026-05-03 21:33 29.80319 -81.11495 23265 ft 407 kts 165°
2026-05-03 21:33 29.77703 -81.10207 23777 ft 409 kts 165°
2026-05-03 21:33 29.75094 -81.08931 24208 ft 412 kts 166°
2026-05-03 21:34 29.72449 -81.07638 24646 ft 414 kts 166°
2026-05-03 21:34 29.69792 -81.06340 25080 ft 415 kts 166°
2026-05-03 21:34 29.67121 -81.05039 25500 ft 417 kts 166°
2026-05-03 21:34 29.64443 -81.03732 25925 ft 419 kts 166°
2026-05-03 21:35 29.61759 -81.02419 26343 ft 421 kts 166°
2026-05-03 21:35 29.59052 -81.01095 26752 ft 423 kts 166°
2026-05-03 21:35 29.56333 -80.99764 27148 ft 424 kts 166°
2026-05-03 21:35 29.53643 -80.98448 27541 ft 426 kts 166°
2026-05-03 21:36 29.50901 -80.97108 27901 ft 428 kts 166°
2026-05-03 21:36 29.48158 -80.95767 28329 ft 428 kts 166°
2026-05-03 21:36 29.45405 -80.94423 28738 ft 430 kts 167°
2026-05-03 21:36 29.42644 -80.93079 29128 ft 431 kts 167°
2026-05-03 21:37 29.39872 -80.91730 29514 ft 433 kts 167°
2026-05-03 21:37 29.37092 -80.90377 29884 ft 435 kts 167°
2026-05-03 21:37 29.34306 -80.89019 30278 ft 435 kts 167°
2026-05-03 21:37 29.31507 -80.87657 30580 ft 438 kts 167°
2026-05-03 21:38 29.28695 -80.86291 30850 ft 440 kts 167°
2026-05-03 21:38 29.25896 -80.84935 31121 ft 442 kts 167°
2026-05-03 21:38 29.23057 -80.83559 31496 ft 442 kts 168°
2026-05-03 21:38 29.20222 -80.82182 31823 ft 442 kts 168°
2026-05-03 21:39 29.17390 -80.80808 32194 ft 442 kts 168°
2026-05-03 21:39 29.14550 -80.79432 32568 ft 443 kts 169°
2026-05-03 21:39 29.11713 -80.78056 32941 ft 443 kts 169°
2026-05-03 21:39 29.08870 -80.76680 33318 ft 443 kts 169°
2026-05-03 21:40 29.06026 -80.75307 33697 ft 443 kts 169°
2026-05-03 21:40 29.03181 -80.73933 34030 ft 445 kts 170°
2026-05-03 21:40 28.97504 -80.71190 34109 ft 445 kts 170°
2026-05-03 21:41 28.91791 -80.68525 34059 ft 442 kts 172°
2026-05-03 21:41 28.86111 -80.66012 34101 ft 435 kts 172°
2026-05-03 21:42 28.80462 -80.63542 34081 ft 434 kts 172°
2026-05-03 21:42 28.74827 -80.61043 34076 ft 435 kts 172°
2026-05-03 21:43 28.69193 -80.58521 34067 ft 435 kts 172°
2026-05-03 21:43 28.63562 -80.55998 34055 ft 435 kts 172°
2026-05-03 21:44 28.57934 -80.53493 33991 ft 434 kts 172°
2026-05-03 21:44 28.52330 -80.51006 34034 ft 435 kts 172°
2026-05-03 21:45 28.46691 -80.48499 34047 ft 435 kts 172°
2026-05-03 21:45 28.41054 -80.46002 34055 ft 435 kts 172°
2026-05-03 21:46 28.35408 -80.43499 34061 ft 435 kts 172°
2026-05-03 21:46 28.29762 -80.41002 34030 ft 434 kts 172°
2026-05-03 21:47 28.24164 -80.38525 34045 ft 434 kts 172°
2026-05-03 21:47 28.18528 -80.36034 34061 ft 434 kts 172°
2026-05-03 21:48 28.12892 -80.33550 34067 ft 434 kts 172°
2026-05-03 21:48 28.07246 -80.31099 34071 ft 432 kts 173°
2026-05-03 21:49 28.01582 -80.28872 34026 ft 429 kts 174°
2026-05-03 21:49 27.95951 -80.26748 34039 ft 429 kts 174°
2026-05-03 21:50 27.90280 -80.24571 34052 ft 431 kts 174°
2026-05-03 21:50 27.84606 -80.22352 34066 ft 432 kts 173°
2026-05-03 21:51 27.78930 -80.20121 34056 ft 432 kts 173°
2026-05-03 21:51 27.77050 -80.19385 33605 ft 433 kts 173°
2026-05-03 21:51 27.74215 -80.18278 33015 ft 425 kts 173°
2026-05-03 21:52 27.71476 -80.17196 32539 ft 409 kts 173°
2026-05-03 21:52 27.68829 -80.16150 32073 ft 395 kts 173°
2026-05-03 21:52 27.66275 -80.15148 31645 ft 383 kts 173°
2026-05-03 21:52 27.63760 -80.14180 31207 ft 382 kts 173°
2026-05-03 21:53 27.61234 -80.13216 30765 ft 383 kts 172°
2026-05-03 21:53 27.58719 -80.12224 30329 ft 384 kts 171°
2026-05-03 21:53 27.56198 -80.11195 29845 ft 385 kts 170°
2026-05-03 21:53 27.53687 -80.10148 29411 ft 384 kts 170°
2026-05-03 21:54 27.51219 -80.09113 28985 ft 382 kts 170°
2026-05-03 21:54 27.48729 -80.08073 28573 ft 381 kts 170°
2026-05-03 21:54 27.46245 -80.07041 28159 ft 379 kts 170°
2026-05-03 21:54 27.43764 -80.06017 27751 ft 378 kts 170°
2026-05-03 21:55 27.41294 -80.05000 27358 ft 377 kts 170°
2026-05-03 21:55 27.38866 -80.04005 26963 ft 375 kts 171°
2026-05-03 21:55 27.36400 -80.03089 26591 ft 370 kts 173°
2026-05-03 21:55 27.33941 -80.02295 26214 ft 366 kts 175°
2026-05-03 21:56 27.31491 -80.01571 25840 ft 362 kts 175°
2026-05-03 21:56 27.29053 -80.00875 25451 ft 360 kts 175°
2026-05-03 21:56 27.26630 -80.00182 25066 ft 358 kts 175°
2026-05-03 21:56 27.24224 -79.99453 24660 ft 359 kts 174°
2026-05-03 21:57 27.21829 -79.98636 24254 ft 359 kts 172°
2026-05-03 21:57 27.19447 -79.97768 23839 ft 359 kts 171°
2026-05-03 21:57 27.17080 -79.96884 23373 ft 359 kts 171°
2026-05-03 21:57 27.14705 -79.95994 22925 ft 357 kts 171°
2026-05-03 21:58 27.12360 -79.95124 22491 ft 354 kts 171°
2026-05-03 21:58 27.10021 -79.94267 22051 ft 352 kts 171°
2026-05-03 21:58 27.07696 -79.93423 21626 ft 350 kts 171°
2026-05-03 21:58 27.05389 -79.92569 21203 ft 349 kts 169°
2026-05-03 21:59 27.03119 -79.91677 20775 ft 350 kts 168°
2026-05-03 21:59 27.00825 -79.90745 20346 ft 350 kts 168°
2026-05-03 21:59 26.98539 -79.89803 19910 ft 349 kts 167°
2026-05-03 21:59 26.96263 -79.88867 19476 ft 348 kts 167°
2026-05-03 22:00 26.93983 -79.87936 19046 ft 349 kts 167°
2026-05-03 22:00 26.91700 -79.87009 18614 ft 349 kts 167°
2026-05-03 22:00 26.89410 -79.86082 18160 ft 350 kts 167°
2026-05-03 22:00 26.87120 -79.85160 17707 ft 348 kts 167°
2026-05-03 22:01 26.84842 -79.84247 17242 ft 347 kts 167°
2026-05-03 22:01 26.82579 -79.83339 16815 ft 345 kts 167°
2026-05-03 22:01 26.80351 -79.82444 16373 ft 334 kts 167°
2026-05-03 22:01 26.78224 -79.81586 15978 ft 322 kts 167°
2026-05-03 22:02 26.76124 -79.80741 15583 ft 321 kts 167°
2026-05-03 22:02 26.74019 -79.79899 15183 ft 322 kts 167°
2026-05-03 22:02 26.71885 -79.79216 14778 ft 317 kts 176°
2026-05-03 22:02 26.69709 -79.79037 14388 ft 311 kts 188°
2026-05-03 22:03 26.67582 -79.79356 14001 ft 307 kts 199°
2026-05-03 22:03 26.65572 -79.80094 13599 ft 303 kts 205°
2026-05-03 22:03 26.63594 -79.80904 13209 ft 301 kts 205°
2026-05-03 22:03 26.61630 -79.81708 12829 ft 300 kts 205°
2026-05-03 22:04 26.59676 -79.82505 12456 ft 298 kts 205°
2026-05-03 22:04 26.57735 -79.83297 12081 ft 296 kts 204°
2026-05-03 22:04 26.55805 -79.84082 11690 ft 295 kts 204°
2026-05-03 22:04 26.53896 -79.84900 11416 ft 290 kts 206°
2026-05-03 22:05 26.52040 -79.85760 10955 ft 288 kts 207°
2026-05-03 22:05 26.50250 -79.86612 10531 ft 277 kts 207°
2026-05-03 22:05 26.48511 -79.87443 10171 ft 267 kts 207°
2026-05-03 22:05 26.46834 -79.88243 9813 ft 257 kts 207°
2026-05-03 22:06 26.45208 -79.89016 9450 ft 254 kts 207°
2026-05-03 22:06 26.43571 -79.89792 9105 ft 254 kts 207°
2026-05-03 22:06 26.41943 -79.90563 8773 ft 256 kts 206°
2026-05-03 22:06 26.40284 -79.91348 8422 ft 260 kts 207°
2026-05-03 22:07 26.38611 -79.92140 8071 ft 262 kts 208°
2026-05-03 22:07 26.37019 -79.93116 7862 ft 264 kts 213°
2026-05-03 22:07 26.35394 -79.94167 7701 ft 272 kts 213°
2026-05-03 22:07 26.33760 -79.95220 7528 ft 271 kts 212°
2026-05-03 22:08 26.32146 -79.96251 7343 ft 270 kts 212°
2026-05-03 22:08 26.30510 -79.97295 7170 ft 270 kts 212°
2026-05-03 22:08 26.28880 -79.98337 6995 ft 269 kts 212°
2026-05-03 22:08 26.27257 -79.99378 6824 ft 269 kts 212°
2026-05-03 22:09 26.25638 -80.00417 6648 ft 268 kts 212°
2026-05-03 22:09 26.24019 -80.01459 6477 ft 269 kts 212°
2026-05-03 22:09 26.22400 -80.02501 6293 ft 268 kts 212°
2026-05-03 22:10 26.19246 -80.04652 5939 ft 262 kts 223°
2026-05-03 22:10 26.18034 -80.06145 5770 ft 259 kts 238°
2026-05-03 22:10 26.17245 -80.07935 5602 ft 257 kts 252°
2026-05-03 22:10 26.16684 -80.09828 5429 ft 258 kts 252°
2026-05-03 22:11 26.16118 -80.11704 5483 ft 251 kts 252°
2026-05-03 22:11 26.15548 -80.13579 6077 ft 258 kts 251°
2026-05-03 22:11 26.15083 -80.15517 6660 ft 260 kts 262°
2026-05-03 22:11 26.15024 -80.17535 7251 ft 262 kts 269°
2026-05-03 22:12 26.15040 -80.19568 7926 ft 268 kts 269°
2026-05-03 22:12 26.15050 -80.21651 8620 ft 269 kts 269°
2026-05-03 22:12 26.15058 -80.23735 9325 ft 270 kts 269°
2026-05-03 22:12 26.15065 -80.25843 9849 ft 272 kts 269°
2026-05-03 22:13 26.15088 -80.27878 9965 ft 253 kts 269°
2026-05-03 22:13 26.15108 -80.29776 9995 ft 237 kts 269°
2026-05-03 22:13 26.15143 -80.31607 10007 ft 247 kts 271°
2026-05-03 22:13 26.15210 -80.33583 10009 ft 259 kts 271°
2026-05-03 22:14 26.15279 -80.35571 10001 ft 259 kts 271°
2026-05-03 22:14 26.15339 -80.37589 10002 ft 260 kts 270°
2026-05-03 22:14 26.15410 -80.39607 10006 ft 261 kts 270°
2026-05-03 22:14 26.15484 -80.41620 10011 ft 260 kts 270°
2026-05-03 22:15 26.15558 -80.43637 10008 ft 259 kts 270°
2026-05-03 22:15 26.15630 -80.45619 10007 ft 258 kts 270°
2026-05-03 22:15 26.15703 -80.47614 10009 ft 257 kts 271°
2026-05-03 22:15 26.15768 -80.49630 9626 ft 263 kts 270°
2026-05-03 22:16 26.15827 -80.51639 9198 ft 257 kts 270°
2026-05-03 22:16 26.15901 -80.53599 8764 ft 251 kts 271°
2026-05-03 22:16 26.15967 -80.55549 8145 ft 253 kts 271°
2026-05-03 22:16 26.16031 -80.57507 7538 ft 253 kts 271°
2026-05-03 22:17 26.16099 -80.59462 6942 ft 253 kts 271°
2026-05-03 22:17 26.16166 -80.61420 6354 ft 253 kts 270°
2026-05-03 22:17 26.15919 -80.63297 6065 ft 239 kts 244°
2026-05-03 22:17 26.14887 -80.64740 5739 ft 240 kts 215°
2026-05-03 22:18 26.13359 -80.65359 5381 ft 242 kts 185°
2026-05-03 22:18 26.11657 -80.65224 5017 ft 248 kts 174°
2026-05-03 22:18 26.09956 -80.64925 4644 ft 247 kts 173°
2026-05-03 22:18 26.08282 -80.64453 4266 ft 252 kts 155°
2026-05-03 22:19 26.06984 -80.63177 4018 ft 252 kts 123°
2026-05-03 22:19 26.06235 -80.61456 4007 ft 240 kts 114°
2026-05-03 22:19 26.05612 -80.59752 4008 ft 237 kts 113°
2026-05-03 22:19 26.05002 -80.58039 4013 ft 238 kts 112°
2026-05-03 22:20 26.04450 -80.56321 4008 ft 236 kts 100°
2026-05-03 22:20 26.04581 -80.54518 4010 ft 237 kts 70°
2026-05-03 22:20 26.05218 -80.52854 3996 ft 226 kts 64°
2026-05-03 22:20 26.05877 -80.51341 3985 ft 210 kts 63°
2026-05-03 22:21 26.06510 -80.49900 3983 ft 208 kts 63°
2026-05-03 22:21 26.07133 -80.48455 4056 ft 213 kts 64°
2026-05-03 22:21 26.07372 -80.46831 4026 ft 213 kts 104°
2026-05-03 22:21 26.06791 -80.45301 4028 ft 214 kts 118°
2026-05-03 22:22 26.06590 -80.43695 4029 ft 212 kts 83°
2026-05-03 22:22 26.06712 -80.42105 4008 ft 208 kts 89°
2026-05-03 22:22 26.06712 -80.40483 4012 ft 207 kts 90°
2026-05-03 22:22 26.06703 -80.38883 3898 ft 208 kts 91°
2026-05-03 22:23 26.06695 -80.37295 3677 ft 204 kts 90°
2026-05-03 22:23 26.06688 -80.35708 3418 ft 207 kts 89°
2026-05-03 22:23 26.06681 -80.34101 3157 ft 210 kts 89°
2026-05-03 22:23 26.06677 -80.32452 2861 ft 215 kts 88°
2026-05-03 22:24 26.06668 -80.30792 2583 ft 211 kts 90°
2026-05-03 22:24 26.06658 -80.29207 2318 ft 199 kts 90°
2026-05-03 22:24 26.06651 -80.27721 2068 ft 185 kts 89°
2026-05-03 22:24 26.06644 -80.26355 1839 ft 168 kts 89°
2026-05-03 22:25 26.06637 -80.25109 1628 ft 155 kts 88°
2026-05-03 22:25 26.06631 -80.23934 1439 ft 149 kts 89°
2026-05-03 22:25 26.06626 -80.22782 1241 ft 148 kts 89°
2026-05-03 22:25 26.06620 -80.21643 1046 ft 147 kts 88°
2026-05-03 22:26 26.06614 -80.20510 860 ft 147 kts 87°
2026-05-03 22:26 26.06608 -80.19379 672 ft 145 kts 86°
2026-05-03 22:26 26.06596 -80.18265 502 ft 146 kts 87°
2026-05-03 22:26 26.06584 -80.17131 270 ft 147 kts 88°
2026-05-03 22:27 26.06594 -80.15995 97 ft 147 kts 89°
2026-05-03 22:27 26.06587 -80.14908 21 ft 124 kts 88°
2026-05-03 22:27 26.06582 -80.14281 17 ft 45 kts 90°
2026-05-03 22:27 26.06580 -80.13994 22 ft 34 kts 90°
2026-05-03 22:28 26.06620 -80.13788 25 ft 20 kts 54°
2026-05-03 22:28 26.06708 -80.13729 27 ft 13 kts 346°
2026-05-03 22:28 26.06742 -80.13828 26 ft 16 kts 268°
2026-05-03 22:28 26.06742 -80.13869 25 ft 2 kts 269°
2026-05-03 22:29 26.06741 -80.13903 26 ft 5 kts 270°
2026-05-03 22:29 26.06741 -80.13907 26 ft 0 kts 270°
2026-05-03 22:30 26.06741 -80.13914 26 ft 6 kts 270°
2026-05-03 22:30 26.06731 -80.14016 23 ft 19 kts 250°
2026-05-03 22:30 26.06688 -80.14168 19 ft 22 kts 266°
2026-05-03 22:31 26.06689 -80.14338 18 ft 20 kts 271°
2026-05-03 22:31 26.06690 -80.14446 18 ft 7 kts 270°
2026-05-03 22:31 26.06690 -80.14453 18 ft 2 kts 270°
2026-05-03 22:31 26.06690 -80.14479 17 ft 5 kts 270°
2026-05-03 22:32 26.06690 -80.14531 17 ft 9 kts 270°
2026-05-03 22:32 26.06689 -80.14609 17 ft 11 kts 269°
2026-05-03 22:32 26.06690 -80.14701 18 ft 13 kts 271°
2026-05-03 22:32 26.06691 -80.14800 20 ft 11 kts 271°
2026-05-03 22:33 26.06694 -80.14875 21 ft 8 kts 276°
2026-05-03 22:33 26.06695 -80.14886 21 ft 2 kts 278°
2026-05-03 22:33 26.06709 -80.14909 23 ft 7 kts 314°
2026-05-03 22:33 26.06757 -80.14906 22 ft 10 kts 45°
2026-05-03 22:34 26.06768 -80.14797 21 ft 18 kts 90°
2026-05-03 22:34 26.06816 -80.14713 18 ft 16 kts 354°
2026-05-03 22:34 26.06899 -80.14776 20 ft 13 kts 336°
2026-05-03 22:34 26.06949 -80.14761 19 ft 4 kts 66°
2026-05-03 22:35 26.06935 -80.14718 20 ft 7 kts 126°
2026-05-03 22:35 26.06895 -80.14669 18 ft 10 kts 136°
2026-05-03 22:35 26.06859 -80.14630 18 ft 6 kts 134°
2026-05-03 22:35 26.06851 -80.14577 17 ft 9 kts 61°
2026-05-03 22:36 26.06877 -80.14556 17 ft 4 kts 21°
2026-05-03 22:36 26.06886 -80.14552 17 ft 0 kts 21°
2026-05-03 22:41 26.06885 -80.14552 17 ft 0 kts 21°